Flag for Germany Weather past 2 weeks in Wilhelmshaven, Lower Saxony, Germany

Now
37 °F

Fog.


Feels Like: 34 °F
Forecast: 45 / 53 °F
Wind: 5 mph from Northwest

Location: Wittmundhaven

Current Time: Apr 21, 2015 at 7:23:51 AM

Latest Report: Apr 21, 2015 at 6:20 AM


Visibility: N/A

Pressure: 30.42 "Hg

Humidity: 100%

Dew point: 37 °F

Location of WilhelmshavenLocation

Historic Weather in Wilhelmshaven — Graph

°F

Wilhelmshaven temperature yesterday

Maximum temperature yesterday: 57 °F (at 12:20 PM)
Minimum temperature yesterday: 34 °F (at 5:20 AM)
Average temperature yesterday: 47 °F

Past Weeks' High & Low Weather Summary

 TemperatureHumidityPressure
High66 °F (Apr 10, 4:20 PM)100% (Apr 6, 8:20 AM)30.57 "Hg (Apr 6, 8:20 AM)
Low32 °F (Apr 7, 2:20 AM)41% (Apr 12, 2:20 PM)29.89 "Hg (Apr 11, 6:20 AM)
Average46 °F78%30.26 "Hg
* Reported Apr 6 5:20 AM — Apr 21 5:20 AM, Wilhelmshaven, Weather by CustomWeather, © 2015

Note: Actual official high and low records may vary slightly from our data, if they occured in-between our weather recording intervals... More about our weather records

Advertising

Wilhelmshaven weather history for previous 24 hours

 ConditionsComfort  
Time TempWeatherWind HumidityBarometerVisibility
5:20 AM
Tue, Apr 21
39 °FFog.3 mph93%30.42 "HgN/A
4:20 AM37 °FFog.5 mph100%30.42 "HgN/A
3:20 AM39 °FPassing clouds.5 mph93%30.42 "HgN/A
2:20 AM43 °FPassing clouds.3 mph93%30.42 "HgN/A
1:20 AM41 °FPassing clouds.5 mph93%30.42 "HgN/A
12:20 AM43 °FPassing clouds.5 mph93%30.39 "HgN/A
11:20 PM
Mon, Apr 20
45 °FPassing clouds.7 mph87%30.39 "HgN/A
10:20 PM45 °FPassing clouds.7 mph87%30.39 "HgN/A
9:20 PM46 °FPartly sunny.7 mph87%30.42 "HgN/A
8:20 PM50 °FPartly sunny.6 mph71%30.39 "HgN/A
7:20 PM52 °FPartly sunny.7 mph72%30.39 "HgN/A
6:20 PM54 °FPartly sunny.9 mph67%30.39 "HgN/A
5:20 PM54 °FPartly sunny.10 mph67%30.39 "HgN/A
4:20 PM55 °FPartly sunny.13 mph59%30.39 "HgN/A
3:20 PM54 °FPartly sunny.12 mph63%30.39 "HgN/A
2:20 PM55 °FScattered clouds.13 mph55%30.39 "HgN/A
1:20 PM57 °FScattered clouds.15 mph41%30.42 "HgN/A
12:20 PM57 °FScattered clouds.12 mph41%30.39 "HgN/A
11:20 AM55 °FPassing clouds.12 mph59%30.39 "HgN/A
10:20 AM54 °FPassing clouds.10 mph58%30.39 "HgN/A
9:20 AM52 °FPassing clouds.9 mph67%30.39 "HgN/A
8:20 AM45 °FPassing clouds.6 mph93%30.36 "HgN/A
7:20 AM37 °FFog.3 mph93%30.36 "HgN/A
Weather by CustomWeather, © 2015

See weather overviewHow to use our weather pages